Sidney-Richland, MT

7:27 AM MDT on July 21, 2017 (GMT -0600)
Sidney-Richland Municipal

Weather History for KSDY - April, 2014

Change the Weather History Date:

Saturday, April 26, 2014

  Actual Average Record
Temperature  
Mean Temperature 56 °F -  
Max Temperature 68 °F 61 °F 90 °F (1952)
Min Temperature 44 °F 35 °F 19 °F (1950)
Degree Days  
Heating Degree Days 9    
Growing Degree Days 6 (Base 50)    
Moisture  
Dew Point 37 °F    
Average Humidity 56    
Maximum Humidity 87    
Minimum Humidity 30    
Precipitation  
Precipitation 0.01 in - - ()
Sea Level Pressure  
Sea Level Pressure 29.61 in    
Wind  
Wind Speed 12 mph (East)    
Max Wind Speed 30 mph    
Max Gust Speed 43 mph    
Visibility 10 miles    
Events      
Averages and records for this station are not official NWS values.
T = Trace of Precipitation, MM = Missing Value Source: NWS Daily Summary

Daily Weather History Graph

Daily Weather History Graph

Search for Another Location

Airport or City:

Trip Planner

Search our weather history database for the weather conditions in past years. The results will help you decide how hot, cold, wet, or windy it might be!

Date:

Astronomy

Apr. 26, 2014 Rise Set
Actual Time 5:47 AM MDT 8:02 PM MDT
Civil Twilight 5:13 AM MDT 8:36 PM MDT
Nautical Twilight 4:31 AM MDT 9:18 PM MDT
Astronomical Twilight 3:44 AM MDT 10:06 PM MDT
Moon 4:26 AM MDT (4/26) 5:22 PM MDT (4/26)
Length of Visible Light 15h 22m
Length of Day
14h 14m
Waning Crescent, 8% of the Moon is Illuminated
Apr 26
Waning Crescent
Apr 29
New
May 6
First Quarter
May 14
Full
May 21
Last Quarter

Hourly Weather History & Observations

Time (MDT) Temp. Windchill Dew Point Humidity Pressure Visibility Wind Dir Wind Speed Gust Speed Precip Events Conditions
12:15 AM 51.8 °F - 33.8 °F 50% 29.73 in 10.0 mi Calm Calm - N/A   Clear
12:35 AM 51.8 °F - 35.6 °F 54% 29.73 in 10.0 mi East 3.5 mph - N/A   Clear
12:55 AM 48.2 °F - 35.6 °F 62% 29.73 in 10.0 mi North 6.9 mph - N/A   Clear
1:15 AM 48.2 °F - 35.6 °F 62% 29.73 in 10.0 mi ENE 8.1 mph - N/A   Clear
1:55 AM 48.2 °F - 37.4 °F 66% 29.71 in 10.0 mi ESE 12.7 mph - N/A   Clear
2:15 AM 48.2 °F - 37.4 °F 66% 29.72 in 10.0 mi NE 8.1 mph - N/A   Clear
2:35 AM 48.2 °F - 39.2 °F 71% 29.72 in 10.0 mi East 5.8 mph - N/A   Partly Cloudy
2:55 AM 48.2 °F - 37.4 °F 66% 29.72 in 10.0 mi Calm Calm - N/A   Clear
3:15 AM 48.2 °F - 39.2 °F 71% 29.72 in 10.0 mi East 4.6 mph - N/A   Scattered Clouds
3:35 AM 48.2 °F - 39.2 °F 71% 29.72 in 10.0 mi East 11.5 mph - N/A   Mostly Cloudy
3:55 AM 48.2 °F - 39.2 °F 71% 29.71 in 10.0 mi East 9.2 mph - N/A   Mostly Cloudy
4:15 AM 48.2 °F - 39.2 °F 71% 29.70 in 10.0 mi ESE 11.5 mph - N/A   Scattered Clouds
4:35 AM 46.4 °F 41.5 °F 37.4 °F 71% 29.69 in 10.0 mi ESE 10.4 mph - N/A   Clear
4:55 AM 46.4 °F 41.9 °F 37.4 °F 71% 29.68 in 10.0 mi East 9.2 mph - N/A   Clear
5:15 AM 46.4 °F 42.9 °F 37.4 °F 71% 29.68 in 10.0 mi East 6.9 mph - N/A   Partly Cloudy
5:55 AM 46.4 °F 42.4 °F 37.4 °F 71% 29.68 in 10.0 mi ENE 8.1 mph - N/A   Mostly Cloudy
6:15 AM 46.4 °F 41.9 °F 37.4 °F 71% 29.67 in 10.0 mi East 9.2 mph - N/A   Overcast
6:35 AM 44.6 °F 41.4 °F 37.4 °F 76% 29.68 in 10.0 mi East 5.8 mph - N/A   Overcast
6:55 AM 44.6 °F 39.7 °F 39.2 °F 81% 29.68 in 10.0 mi ENE 9.2 mph - N/A   Overcast
7:15 AM 44.6 °F 41.4 °F 39.2 °F 81% 29.67 in 9.0 mi ENE 5.8 mph - 0.01 in   Overcast
7:35 AM 44.6 °F 40.7 °F 39.2 °F 81% 29.68 in 10.0 mi ENE 6.9 mph - 0.01 in   Overcast
7:55 AM 44.6 °F 40.2 °F 39.2 °F 81% 29.67 in 10.0 mi NE 8.1 mph - 0.01 in   Overcast
8:15 AM 44.6 °F 41.4 °F 41.0 °F 87% 29.68 in 10.0 mi East 5.8 mph - N/A   Overcast
8:35 AM 44.6 °F 39.7 °F 41.0 °F 87% 29.68 in 10.0 mi East 9.2 mph - N/A   Overcast
8:55 AM 44.6 °F 39.2 °F 41.0 °F 87% 29.66 in 10.0 mi ENE 10.4 mph - N/A   Overcast
9:15 AM 44.6 °F 38.4 °F 41.0 °F 87% 29.67 in 10.0 mi East 12.7 mph 19.6 mph N/A   Overcast
9:35 AM 46.4 °F 41.1 °F 41.0 °F 81% 29.65 in 10.0 mi East 11.5 mph 16.1 mph N/A   Overcast
9:55 AM 46.4 °F 40.1 °F 41.0 °F 81% 29.65 in 10.0 mi East 15.0 mph - N/A   Overcast
10:15 AM 48.2 °F - 41.0 °F 76% 29.65 in 10.0 mi East 15.0 mph 19.6 mph N/A   Mostly Cloudy
10:35 AM 48.2 °F - 42.8 °F 82% 29.63 in 10.0 mi ENE 17.3 mph 23.0 mph N/A   Mostly Cloudy
10:55 AM 53.6 °F - 42.8 °F 67% 29.61 in 10.0 mi East 19.6 mph 27.6 mph N/A   Partly Cloudy
11:15 AM 55.4 °F - 42.8 °F 63% 29.60 in 10.0 mi East 20.7 mph 29.9 mph N/A   Clear
11:35 AM 55.4 °F - 42.8 °F 63% 29.58 in 10.0 mi East 18.4 mph 27.6 mph N/A   Mostly Cloudy
11:55 AM 60.8 °F - 39.2 °F 45% 29.56 in 10.0 mi ESE 28.8 mph 38.0 mph N/A   Overcast
12:15 PM 62.6 °F - 39.2 °F 42% 29.56 in 10.0 mi ESE 26.5 mph 38.0 mph N/A   Mostly Cloudy
12:35 PM 64.4 °F - 39.2 °F 40% 29.56 in 10.0 mi SE 24.2 mph 33.4 mph N/A   Scattered Clouds
12:55 PM 66.2 °F - 37.4 °F 35% 29.55 in 10.0 mi SE 25.3 mph 38.0 mph N/A   Mostly Cloudy
1:15 PM 66.2 °F - 39.2 °F 37% 29.55 in 10.0 mi SE 27.6 mph 38.0 mph N/A   Mostly Cloudy
1:35 PM 64.4 °F - 37.4 °F 37% 29.54 in 10.0 mi ESE 26.5 mph 35.7 mph N/A   Scattered Clouds
1:55 PM 66.2 °F - 39.2 °F 37% 29.54 in 10.0 mi ESE 20.7 mph 35.7 mph N/A   Clear
2:15 PM 66.2 °F - 39.2 °F 37% 29.52 in 10.0 mi SE 23.0 mph 34.5 mph N/A   Mostly Cloudy
2:35 PM 68.0 °F - 37.4 °F 33% 29.52 in 10.0 mi ESE 26.5 mph 40.3 mph N/A   Mostly Cloudy
2:55 PM 68.0 °F - 37.4 °F 33% 29.51 in 10.0 mi ESE 21.9 mph 36.8 mph N/A   Mostly Cloudy
3:15 PM 68.0 °F - 35.6 °F 30% 29.50 in 10.0 mi SE 29.9 mph 38.0 mph N/A   Mostly Cloudy
3:35 PM 68.0 °F - 35.6 °F 30% 29.49 in 10.0 mi SE 29.9 mph 39.1 mph N/A   Mostly Cloudy
3:55 PM 66.2 °F - 35.6 °F 32% 29.49 in 10.0 mi ESE 26.5 mph 34.5 mph N/A   Mostly Cloudy
4:15 PM 66.2 °F - 35.6 °F 32% 29.49 in 10.0 mi SE 25.3 mph 36.8 mph N/A   Overcast
4:35 PM 66.2 °F - 35.6 °F 32% 29.49 in 10.0 mi SE 25.3 mph 32.2 mph N/A   Overcast
4:55 PM 66.2 °F - 35.6 °F 32% 29.49 in 10.0 mi ESE 25.3 mph 38.0 mph N/A   Overcast
5:35 PM 66.2 °F - 35.6 °F 32% 29.49 in 10.0 mi ESE 25.3 mph 42.6 mph N/A   Overcast
5:55 PM 66.2 °F - 33.8 °F 30% 29.49 in 10.0 mi ESE 26.5 mph 35.7 mph N/A   Overcast
6:15 PM 66.2 °F - 33.8 °F 30% 29.49 in 10.0 mi ESE 25.3 mph 35.7 mph N/A   Overcast
6:35 PM 62.6 °F - 35.6 °F 37% 29.50 in 10.0 mi ESE 25.3 mph 32.2 mph N/A   Overcast
6:55 PM 62.6 °F - 35.6 °F 37% 29.51 in 10.0 mi East 18.4 mph 38.0 mph N/A   Overcast
7:35 PM 59.0 °F - 35.6 °F 42% 29.53 in 10.0 mi ESE 20.7 mph 32.2 mph N/A   Overcast
7:55 PM 57.2 °F - 35.6 °F 44% 29.55 in 10.0 mi ESE 18.4 mph 29.9 mph N/A   Overcast
8:15 PM 55.4 °F - 33.8 °F 44% 29.57 in 10.0 mi East 16.1 mph 29.9 mph N/A   Overcast
8:35 PM 55.4 °F - 33.8 °F 44% 29.58 in 10.0 mi East 19.6 mph 24.2 mph N/A   Overcast
8:55 PM 53.6 °F - 33.8 °F 47% 29.59 in 10.0 mi East 20.7 mph 27.6 mph N/A   Mostly Cloudy
9:15 PM 51.8 °F - 33.8 °F 50% 29.59 in 10.0 mi ESE 20.7 mph 26.5 mph N/A   Clear
9:35 PM 51.8 °F - 33.8 °F 50% 29.59 in 10.0 mi East 18.4 mph 23.0 mph N/A   Clear
9:55 PM 51.8 °F - 33.8 °F 50% 29.60 in 10.0 mi SE 20.7 mph 27.6 mph N/A   Clear
10:15 PM 51.8 °F - 33.8 °F 50% 29.60 in 10.0 mi ESE 16.1 mph 27.6 mph N/A   Clear
10:35 PM 51.8 °F - 33.8 °F 50% 29.60 in 10.0 mi ESE 12.7 mph 26.5 mph N/A   Partly Cloudy
11:15 PM 48.2 °F - 33.8 °F 58% 29.60 in 10.0 mi ESE 17.3 mph 27.6 mph N/A   Mostly Cloudy
11:35 PM 48.2 °F - 35.6 °F 62% 29.59 in 10.0 mi ESE 17.3 mph 27.6 mph N/A   Scattered Clouds
11:55 PM 48.2 °F - 33.8 °F 58% 29.59 in 10.0 mi ESE 15.0 mph 21.9 mph N/A   Mostly Cloudy